Regional Weather Roundup
Issued by NWS Boston, MA

Current Version | Previous Version | Text Only | Print | Product List | Glossary Off
Versions: 1 2 3 4 5 6 7 8 9 10 11 12 13 14 15 16 17 18 19 20 21 22 23 24 25 26 27
000 ASUS41 KBOX 201010 RWRBOX REGIONAL WEATHER ROUNDUP NATIONAL WEATHER SERVICE TAUNTON MA 600 AM EDT SUN AUG 20 2017 NOTE: "FAIR" INDICATES FEW OR NO CLOUDS BELOW 12,000 FEET WITH NO SIGNIFICANT WEATHER AND/OR OBSTRUCTIONS TO VISIBILITY. MAZALL-201100- EASTERN MASSACHUSETTS CITY SKY/WX TMP DP RH WIND PRES REMARKS BOSTON PTCLDY 72 63 73 W10 29.87R BEVERLY CLEAR 69 65 86 W3 29.87R LAWRENCE PTCLDY 71 65 81 SW5 29.89R BEDFORD CLEAR 65 61 87 CALM 29.88R BLUE HILL N/A 67 61 81 W13 29.89R NORWOOD CLEAR 69 65 86 W7 29.88R MARSHFIELD CLEAR 70 68 94 VRB5 29.87R PLYMOUTH CLEAR 66 64 93 SW3 29.89R TAUNTON CLEAR 64 62 93 CALM 29.88R NEW BEDFORD PTCLDY 65 63 93 CALM 29.88R $$ MAZALL-201100- CAPE COD AND THE ISLANDS CITY SKY/WX TMP DP RH WIND PRES REMARKS FALMOUTH CLEAR 68 68 100 CALM 29.90R HYANNIS CLEAR 69 68 96 SW7 29.88R CHATHAM CLEAR 72 71 97 SW5 29.89R PROVINCETOWN CLEAR 68 67 96 SW6 29.88R NANTUCKET CLEAR 69 69 100 SW9 29.90R FOG MARTHAS VNYRD CLEAR 68 66 93 SW3 29.90R FOG $$ MAZALL-201100- CENTRAL AND WESTERN MASSACHUSETTS CITY SKY/WX TMP DP RH WIND PRES REMARKS WORCESTER CLEAR 65 57 75 W13 29.93R FITCHBURG CLEAR 70 62 76 W8 29.90R ORANGE CLEAR 65 60 84 CALM 29.93R SPRINGFIELD CLEAR 67 58 74 CALM 29.92R WESTFIELD CLEAR 68 60 75 CALM 29.93R NORTH ADAMS CLOUDY 65 59 81 W9 29.96R PITTSFIELD CLOUDY 63 58 83 W6 29.97R $$ RIZALL-201100- RHODE ISLAND CITY SKY/WX TMP DP RH WIND PRES REMARKS PROVIDENCE PTCLDY 70 66 87 W7 29.90R NEWPORT PTCLDY 70 68 93 W6 29.90R BLOCK ISLAND CLEAR 70 68 93 W7 29.92R WESTERLY CLEAR 70 67 90 VRB3 29.92R $$ CTZALL-201100- CONNECTICUT CITY SKY/WX TMP DP RH WIND PRES REMARKS BRADLEY INTL PTCLDY 67 60 78 NW6 29.94R HARTFORD CLEAR 71 61 70 NW5 29.93R BRIDGEPORT CLEAR 68 61 78 W5 29.94R DANBURY CLEAR 61 59 93 CALM 29.98R GROTON CLEAR 70 64 81 NW9 29.91R NEW HAVEN CLEAR 70 62 76 NW5 29.94R CHESTER FAIR 68 63 83 NW8 29.94R MERIDEN CLEAR 62 61 96 CALM 29.94R WILLIMANTIC CLEAR 64 63 96 CALM 29.93R OXFORD CLEAR 63 61 93 NW3 29.98R $$ MEZ002-015-021-024-NHZ003-005-008-011-012-014-VTZ005-008-201100- NORTHERN NEW ENGLAND CITY SKY/WX TMP DP RH WIND PRES REMARKS PORTLAND ME CLOUDY 65 62 90 CALM 29.85R BANGOR ME CLOUDY 66 64 93 W3 29.83R FOG CONCORD NH CLOUDY 64 62 93 CALM 29.88R MANCHESTER NH CLOUDY 68 62 81 CALM 29.87R NASHUA NH CLEAR 67 65 93 W3 29.88R PORTSMOUTH NH MOCLDY 66 64 93 W5 29.85R JAFFREY NH CLEAR 66 63 90 W6 29.93R KEENE NH N/A N/A N/A N/A MISG N/A BURLINGTON VT MOCLDY 69 60 73 W5 29.91R MT. WASHINGTON FOG 46 46 100 W44 N/A VSB 0 $$ NYZ052-076-201100- EASTERN NEW YORK CITY SKY/WX TMP DP RH WIND PRES REMARKS ALBANY PTCLDY 65 59 81 SW7 29.97R NEW YORK CITY CLEAR 71 63 75 NW15 29.97R $$ ANZALL-201100- MARINE OBSERVATIONS STATION/POSITION TIME TEMP WIND PRES VSBY WAVE AIR SEA DIR/SP/G HT/PER (UTC) (F) (DEG/KT/KT) (MB) (MI) (FT/S) BOSTON BUOY 0950 68 65 260/ 10/ 12 1011.3R 1/ 7 BUZZARDS BAY 0900 69 230/ 12/ 12 1012.0R NANTUCKET SOUND 0950 71 71 240/ 10/ 12 1012.0R 1/ 2 MASS BAY-STELLWA 0904 67 66 250/ 6/ 6 1010.2R 2/ 6 ISLE OF SHOALS 0900 69 260/ 6/ 6 1010.1R S OF BLOCK IS NOT AVBL $$ ......................KEY......................... SKY/WX - SKY CONDITION/PRESENT WEATHER TMP - TEMPERATURE IN FAHRENHEIT DWPT - DEWPOINT IN FAHRENHEIT RH - RELATIVE HUMIDITY IN PERCENT WIND - DIRECTION AND SPEED IN MPH PRES - MEAN SEA LEVEL PRESSURE IN INCHES OF HG WCI - WIND CHILL INDEX VSB - VISIBILITY IN MILES HX - HEAT INDEX TC - TEMPERATURE IN CELSIUS VRB - VARIABLE WIND DIRECTION N/A - NOT AVAILABLE

USA.gov is the U.S. government's official web portal to all federal, state and local government web resources and services.